This demonstration page uses our WeatherBlox Daily Observations layout. Learn more.

36.17497, -115.13722

Hourly Observations for May 19, 2015

Temp ( °F °C ) Dew Point ( °F °C ) Humidity (%) Winds ( mph kmh ) Pressure ( in mb ) Visibility ( mi km ) Precip ( " mm )
12:53 am 00:53 Clear 60 15.6 43 6.1 53 53 Calm 29.97 1015 10 16.0934 0 0
1:53 am 01:53 Clear 58 14.4 43 6.1 58 58 Calm 29.97 1015 10 16.0934 0 0
2:53 am 02:53 Clear 58 14.4 43 6.1 58 58 Calm 29.95 1014 10 16.0934 0 0
3:53 am 03:53 Clear 55 12.8 43 6.1 64 64 NW 3 6 29.96 1014 10 16.0934 0 0
4:53 am 04:53 Clear 55 12.8 43 6.1 64 64 NNW 3 6 29.96 1015 10 16.0934 0 0
5:53 am 05:53 Sunny 55 12.8 44 6.7 67 67 Calm 29.97 1015 10 16.0934 0 0
6:53 am 06:53 Sunny 58 14.4 45 7.2 62 62 N 3 6 29.98 1015 10 16.0934 0 0
7:53 am 07:53 Sunny 63 17.2 42 5.6 47 47 Calm 29.98 1015 10 16.0934 0 0
8:53 am 08:53 Sunny 65 18.3 41 5 42 42 VRB 3 6 29.98 1015 10 16.0934 0 0
9:53 am 09:53 Sunny 67 19.4 41 5 39 39 Calm 29.98 1015 10 16.0934 0 0
10:53 am 10:53 Sunny 70 21.1 40 4.4 34 34 SSE 7 11 29.96 1015 10 16.0934 0 0
11:53 am 11:53 Sunny 72 22.2 38 3.3 29 29 Calm 29.95 1014 10 16.0934 0 0
12:53 pm 12:53 Sunny 76 24.4 36 2.2 23 23 undefined N/A 29.92 1013 10 16.0934 0 0
1:53 pm 13:53 Partly Cloudy 79 26.1 33 0.6 19 19 undefined N/A 29.9 1013 10 16.0934 0 0
2:53 pm 14:53 Sunny 80 26.7 28 -2.2 15 15 undefined N/A 29.88 1012 10 16.0934 0 0
3:53 pm 15:53 Mostly Sunny 80 26.7 26 -3.3 14 14 SSW 10 17 29.85 1011 10 16.0934 0 0
4:53 pm 16:53 Partly Cloudy 81 27.2 26 -3.3 13 13 W 9 15 29.84 1010 10 16.0934 0 0
5:53 pm 17:53 Sunny 80 26.7 26 -3.3 14 14 SW 9 15 29.82 1010 10 16.0934 0 0
6:53 pm 18:53 Sunny 80 26.7 23 -5 12 12 SSW 8 13 29.82 1010 10 16.0934 0 0
7:53 pm 19:53 Clear 79 26.1 23 -5 12 12 W 6 9 29.82 1010 10 16.0934 0 0
8:53 pm 20:53 Clear 76 24.4 25 -3.9 15 15 W 7 11 29.83 1010 10 16.0934 0 0
9:53 pm 21:53 Clear 74 23.3 27 -2.8 17 17 WSW 7 11 29.85 1011 10 16.0934 0 0
10:53 pm 22:53 Clear 72 22.2 23 -5 16 16 SW 6 9 29.86 1011 10 16.0934 0 0
11:53 pm 23:53 Clear 70 21.1 24 -4.4 18 18 SSW 8 13 29.87 1011 10 16.0934 0 0

Powered by AerisWeather